Terminal Aerodrome Forecast
Issued by NWS La Crosse, WI

Home | Current Version | Previous Version | Text Only | Print | Product List | Glossary On
Versions: 1 2 3 4 5 6 7 8 9 10 11 12 13 14 15 16 17 18 19 20 21 22 23 24 25 26 27 28 29 30 31 32 33 34 35 36 37 38 39 40 41 42 43 44 45 46 47 48 49 50
000
FTUS43 KARX 310613 AAA
TAFRST
TAF AMD
KRST 310613Z 3106/0106 VRB04KT 5SM BR FEW002 SCT025
      TEMPO 3107/3111 3SM BR BKN002
     FM311400 17012KT P6SM SCT080
     FM311700 18015G24KT P6SM SCT080
     FM010000 17010KT P6SM BKN060
      TEMPO 0102/0106 3SM -TSRA BKN035CB=

USA.gov is the U.S. government's official web portal to all federal, state and local government web resources and services.